STARLINK-1336 (45557 NORAD) Tracking and Keplerian Element Data

This shows tracking and keplerian element data for the satellite.

Feedback or suggestion? Click here.




ElementValue
Catalog45557
NameSTARLINK-1336
Epoch Orbit571
Epoch Day145.66667824
Epoch Year2020
RAAN242.1135
Inclination52.9978
Eccentricity0.0001258
Argument of Perigee76.9403
Mean Anonmoly213.4283
Mean Motion15.62736723
Decay Rate0.00045409
L11 45557U 20025AC 20145.66667824 .00045409 00000-0 49928-3 0 9999
L22 45557 52.9978 242.1135 0001258 76.9403 213.4283 15.62736723 5719

Live tracking and technical data element details for STARLINK-1336 (NORAD 45557). STARLINK-1336 can be tracked NOW for your location showing map with azimuth and elevation plus other details from your city location.

Track the satellite on the map from your city or location and see movement details for azimuth, elevation, latitude, longitude, range, height, and movement on the map or in text.







IsCatalogInMostPopularTable: catalog: 45557, numindb: 7
Update: records affected: 1



GetName: 45557 STARLINK-1336

Hit Count: updated at: Tue, 26 May 2020 04:19:14 GMT